• In Hungary
  • List of Countries
  • For 7 days
  • Water Temperature
  • Satellite Maps
  • Weather Map
  • News
  • Weather Widgets
  • user-avatar
    Login

    Hourly Weather Fier

    Today, 21 January, Sunday

    Time Temperature Precipitation Wind Pressure Humidity
    00:00 +10°C° 0 mm 1 mps 758 mmHg 92%
    01:00 +9°C° 0 mm 2 mps 757 mmHg 92%
    02:00 +9°C° 0 mm 2 mps 757 mmHg 92%
    03:00 +9°C° 0 mm 3 mps 756 mmHg 91%
    04:00 +9°C° 0 mm 3 mps 756 mmHg 90%
    05:00 +9°C° 0.2 mm 3 mps 755 mmHg 89%
    06:00 +8°C° 0.2 mm 4 mps 755 mmHg 89%
    07:00 +8°C° 0.2 mm 4 mps 754 mmHg 88%
    08:00 +9°C° 0.1 mm 5 mps 754 mmHg 85%
    09:00 +10°C° 0.1 mm 5 mps 753 mmHg 82%
    10:00 +11°C° 0.1 mm 6 mps 753 mmHg 79%
    11:00 +13°C° 0.5 mm 6 mps 752 mmHg 76%
    12:00 +13°C° 0.5 mm 6 mps 751 mmHg 73%
    13:00 +14°C° 0.5 mm 7 mps 751 mmHg 70%
    14:00 +11°C° 3 mm 6 mps 750 mmHg 78%
    15:00 +10°C° 3 mm 6 mps 750 mmHg 86%
    16:00 +9°C° 3 mm 6 mps 749 mmHg 93%
    17:00 +9°C° 1.5 mm 6 mps 749 mmHg 94%
    18:00 +9°C° 1.5 mm 6 mps 749 mmHg 94%
    19:00 +9°C° 1.5 mm 6 mps 749 mmHg 94%
    20:00 +9°C° 0.5 mm 6 mps 749 mmHg 94%
    21:00 +9°C° 0.5 mm 6 mps 750 mmHg 93%
    22:00 +9°C° 0.5 mm 6 mps 750 mmHg 93%
    23:00 +8°C° 0.4 mm 6 mps 750 mmHg 93%

    Tomorrow, 22 January, Monday

    Time Temperature Precipitation Wind Pressure Humidity
    00:00 +8°C° 0.4 mm 7 mps 751 mmHg 93%
    01:00 +8°C° 0.4 mm 7 mps 751 mmHg 93%
    02:00 +6°C° 0.1 mm 7 mps 752 mmHg 92%
    03:00 +6°C° 0.1 mm 7 mps 752 mmHg 90%
    04:00 +5°C° 0.1 mm 7 mps 753 mmHg 88%
    05:00 +5°C° 0 mm 7 mps 753 mmHg 87%
    06:00 +4°C° 0 mm 7 mps 754 mmHg 86%
    07:00 +3°C° 0 mm 7 mps 755 mmHg 85%
    08:00 +4°C° 0 mm 7 mps 755 mmHg 78%
    09:00 +5°C° 0 mm 7 mps 756 mmHg 71%
    10:00 +6°C° 0 mm 7 mps 757 mmHg 65%
    11:00 +6°C° 0 mm 7 mps 757 mmHg 63%
    12:00 +8°C° 0 mm 7 mps 757 mmHg 61%
    13:00 +8°C° 0 mm 7 mps 757 mmHg 59%
    14:00 +8°C° 0 mm 6 mps 757 mmHg 60%
    15:00 +7°C° 0 mm 6 mps 757 mmHg 62%
    16:00 +7°C° 0 mm 5 mps 758 mmHg 63%
    17:00 +6°C° 0 mm 5 mps 758 mmHg 66%
    18:00 +5°C° 0 mm 4 mps 759 mmHg 70%
    19:00 +4°C° 0 mm 4 mps 759 mmHg 73%
    20:00 +4°C° 0 mm 4 mps 760 mmHg 72%
    21:00 +3°C° 0 mm 4 mps 760 mmHg 72%
    22:00 +3°C° 0 mm 4 mps 761 mmHg 71%
    23:00 +3°C° 0 mm 3 mps 761 mmHg 70%

    Day after tomorrow, 23 January, Tuesday

    Time Temperature Precipitation Wind Pressure Humidity
    00:00 +3°C° 0 mm 3 mps 761 mmHg 69%
    01:00 +3°C° 0 mm 3 mps 761 mmHg 68%
    02:00 +3°C° 0 mm 3 mps 761 mmHg 68%
    03:00 +3°C° 0 mm 3 mps 761 mmHg 68%
    04:00 +3°C° 0 mm 3 mps 761 mmHg 68%
    05:00 +3°C° 0 mm 3 mps 761 mmHg 67%
    06:00 +3°C° 0 mm 3 mps 762 mmHg 67%
    07:00 +3°C° 0 mm 3 mps 762 mmHg 67%
    08:00 +5°C° 0 mm 3 mps 763 mmHg 61%
    09:00 +7°C° 0 mm 3 mps 763 mmHg 56%
    10:00 +9°C° 0 mm 3 mps 763 mmHg 51%
    11:00 +9°C° 0 mm 3 mps 763 mmHg 48%
    12:00 +10°C° 0 mm 3 mps 763 mmHg 45%
    13:00 +11°C° 0 mm 3 mps 763 mmHg 42%
    14:00 +11°C° 0 mm 3 mps 763 mmHg 46%
    15:00 +10°C° 0 mm 3 mps 764 mmHg 50%
    16:00 +10°C° 0 mm 3 mps 764 mmHg 54%
    17:00 +7°C° 0 mm 4 mps 764 mmHg 55%
    18:00 +6°C° 0 mm 4 mps 765 mmHg 57%
    19:00 +5°C° 0 mm 4 mps 766 mmHg 59%
    20:00 +5°C° 0 mm 4 mps 766 mmHg 59%
    21:00 +4°C° 0 mm 4 mps 767 mmHg 59%
    22:00 +4°C° 0 mm 4 mps 767 mmHg 59%
    23:00 +3°C° 0 mm 4 mps 768 mmHg 58%

    24 January, Wednesday

    Time Temperature Precipitation Wind Pressure Humidity
    00:00 +3°C° 0 mm 4 mps 768 mmHg 58%
    01:00 +3°C° 0 mm 4 mps 768 mmHg 57%
    02:00 +3°C° 0 mm 4 mps 769 mmHg 56%
    03:00 +1°C° 0 mm 4 mps 769 mmHg 55%
    04:00 +1°C° 0 mm 4 mps 769 mmHg 54%
    05:00 +1°C° 0 mm 4 mps 769 mmHg 54%
    06:00 +1°C° 0 mm 4 mps 770 mmHg 54%
    07:00 +1°C° 0 mm 4 mps 770 mmHg 53%
    08:00 +3°C° 0 mm 3 mps 770 mmHg 50%
    09:00 +5°C° 0 mm 3 mps 771 mmHg 46%
    10:00 +8°C° 0 mm 3 mps 771 mmHg 43%
    11:00 +9°C° 0 mm 2 mps 771 mmHg 40%
    12:00 +9°C° 0 mm 2 mps 771 mmHg 38%
    13:00 +10°C° 0 mm 2 mps 770 mmHg 36%
    14:00 +10°C° 0 mm 2 mps 770 mmHg 40%
    15:00 +9°C° 0 mm 2 mps 770 mmHg 45%
    16:00 +9°C° 0 mm 2 mps 770 mmHg 49%
    17:00 +8°C° 0 mm 2 mps 770 mmHg 51%
    18:00 +6°C° 0 mm 2 mps 771 mmHg 54%
    19:00 +5°C° 0 mm 2 mps 771 mmHg 56%
    20:00 +5°C° 0 mm 2 mps 771 mmHg 57%
    21:00 +4°C° 0 mm 2 mps 771 mmHg 57%
    22:00 +4°C° 0 mm 2 mps 771 mmHg 58%
    23:00 +4°C° 0 mm 2 mps 771 mmHg 57%

    25 January, Thursday

    Time Temperature Precipitation Wind Pressure Humidity
    00:00 +4°C° 0 mm 2 mps 771 mmHg 57%
    01:00 +4°C° 0 mm 2 mps 770 mmHg 56%
    02:00 +4°C° 0 mm 2 mps 770 mmHg 55%
    03:00 +4°C° 0 mm 2 mps 770 mmHg 53%
    04:00 +4°C° 0 mm 2 mps 769 mmHg 52%
    05:00 +4°C° 0 mm 2 mps 769 mmHg 51%
    06:00 +4°C° 0 mm 2 mps 769 mmHg 49%
    07:00 +5°C° 0 mm 1 mps 769 mmHg 48%
    08:00 +7°C° 0 mm 1 mps 769 mmHg 44%
    09:00 +8°C° 0 mm 1 mps 769 mmHg 39%
    10:00 +10°C° 0 mm 1 mps 769 mmHg 35%
    11:00 +11°C° 0 mm 1 mps 768 mmHg 35%
    12:00 +11°C° 0 mm 1 mps 767 mmHg 35%
    13:00 +12°C° 0 mm 1 mps 767 mmHg 36%
    14:00 +11°C° 0 mm 1 mps 767 mmHg 40%
    15:00 +10°C° 0 mm 1 mps 766 mmHg 45%
    16:00 +9°C° 0 mm 2 mps 766 mmHg 50%
    17:00 +8°C° 0 mm 1 mps 766 mmHg 53%
    18:00 +7°C° 0 mm 1 mps 766 mmHg 55%
    19:00 +6°C° 0 mm 1 mps 766 mmHg 58%
    20:00 +6°C° 0 mm 1 mps 766 mmHg 57%
    21:00 +6°C° 0 mm 1 mps 766 mmHg 56%
    22:00 +6°C° 0 mm 1 mps 766 mmHg 54%
    23:00 +6°C° 0 mm 1 mps 766 mmHg 54%

    26 January, Friday

    Time Temperature Precipitation Wind Pressure Humidity
    00:00 +6°C° 0 mm 1 mps 765 mmHg 53%
    01:00 +6°C° 0 mm 1 mps 765 mmHg 52%
    02:00 +6°C° 0 mm 1 mps 765 mmHg 51%
    03:00 +5°C° 0 mm 2 mps 765 mmHg 51%
    04:00 +5°C° 0 mm 2 mps 765 mmHg 51%
    05:00 +4°C° 0 mm 2 mps 765 mmHg 51%
    06:00 +4°C° 0 mm 2 mps 765 mmHg 51%
    07:00 +4°C° 0 mm 2 mps 766 mmHg 51%
    08:00 +6°C° 0 mm 2 mps 766 mmHg 48%
    09:00 +8°C° 0 mm 2 mps 766 mmHg 45%
    10:00 +10°C° 0 mm 2 mps 766 mmHg 42%
    11:00 +10°C° 0 mm 2 mps 766 mmHg 42%
    12:00 +12°C° 0 mm 2 mps 766 mmHg 41%
    13:00 +13°C° 0 mm 2 mps 766 mmHg 41%
    14:00 +12°C° 0 mm 2 mps 766 mmHg 46%
    15:00 +12°C° 0 mm 2 mps 766 mmHg 51%
    16:00 +10°C° 0 mm 2 mps 766 mmHg 56%
    17:00 +9°C° 0 mm 2 mps 766 mmHg 60%
    18:00 +8°C° 0 mm 2 mps 767 mmHg 63%
    19:00 +7°C° 0 mm 2 mps 767 mmHg 66%
    20:00 +6°C° 0 mm 2 mps 767 mmHg 66%
    21:00 +5°C° 0 mm 3 mps 767 mmHg 67%
    22:00 +5°C° 0 mm 3 mps 768 mmHg 67%
    23:00 +5°C° 0 mm 3 mps 768 mmHg 67%
    Show more